Hourly Data Report for August 09, 2004

SHERBROOKE A
QUEBEC

45°26'00.000" N
71°41'00.000" W
241.40 m
7028124
71610
YSC

Download Data

Hourly Data (August 2004)
Hourly Data Report for August 9, 2004
TIME
LST
Temp Definition
°C
Dew Point Definition
°C
Rel Hum Definition
%
Precip. Amount Definition
mm

Wind Dir Definition
10's deg

Wind Spd Definition
km/h
Visibility Definition
km
Stn Press Definition
kPa
Hmdx Definition


Wind Chill Definition


Weather Definition


00:00 11.3 10.6 95   26 7 15.0 98.59      
01:00 11.8 11.2 96   23 9 15.0 98.57      
02:00 11.6 11.0 96   24 9 15.0 98.60      
03:00 11.3 10.6 95   22 7 15.0 98.59      
04:00 11.0 10.3 95   22 7 15.0 98.61      
05:00 11.4 10.7 95   23 9 15.0 98.65      
06:00 11.7 11.2 97     0 15.0 98.67      
07:00 14.6 13.0 90   23 6 24.1 98.72     Mainly Clear
08:00 16.6 13.2 80   25 11 24.1 98.72     Mainly Clear
09:00 18.2 13.5 74   27 15 24.1 98.72     Mainly Clear
10:00 20.5 13.1 63   29 20 24.1 98.75     Mainly Clear
11:00 22.4 13.8 58   28 22 24.1 98.74 26   Mainly Clear
12:00 23.6 13.4 53   30 24 24.1 98.72 27   Mainly Clear
13:00 23.9 13.4 52   27 24 24.1 98.70 27   Mostly Cloudy
14:00 23.5 12.1 49   28 26 24.1 98.67 26   Mainly Clear
15:00 23.7 11.7 47   29 22 24.1 98.66 26   Mainly Clear
16:00 24.0 12.2 48   27 20 24.1 98.65 26   Mainly Clear
17:00 23.5 11.9 48   27 11 15.0 98.65 26    
18:00 22.3 11.6 51   27 13 15.0 98.67      
19:00 19.5 12.1 62   23 6 15.0 98.68      
20:00 14.5 11.9 84   17 6 15.0 98.72      
21:00 14.0 11.1 83   20 7 15.0 98.71      
22:00 12.9 11.1 89     0 15.0 98.70      
23:00 11.9 10.9 94   7 6 15.0 98.70      

Notes on Data Quality.

Legend

  • E = Estimated
  • M = Missing
  • NA = Not Available*
  • [empty] = Indicates an unobserved value
Date modified: